Aeroporto :
LOGIN :

Iscrizione | Disclaimer

   EN    FR    IT 

 










Sommario :    VFR   VFR Marginale   IFR   IFR Intensivo   IFR Molto Intensivo
Visibilità : 
Base nubi : 
>= 8 km
>= 3000ft
5 / 8 km
1000 / 3000 ft
1500m / 5 km
500 / 1000 ft
800 / 1500m
200 / 500 ft
< 800m
< 200 ft
Simboli :   Temporali  Nebbia  Neve Forte  Precipitazioni Forti  Vento > 20 kt
SIGMETs :   Varie  Temporali  Ghiacco  Turbolenza  Onda orograficha  Ceneri Vulcaniche







- Altitudine del aeroporto : 5600 ft
- Codice IATA : SMV


LSZS - Samedan

ULTIMO METAR :
  • 241520Z 21013KT CAVOK 22/09 Q1026 RMK S

METARs OBSOLETI :
  • 241450Z 21012KT CAVOK 23/09 Q1026 RMK R
  • 241420Z 21012KT CAVOK 23/08 Q1026 RMK Q
  • 241350Z AUTO 22011KT CAVOK 23/09 Q1026
  • 241320Z AUTO 22014KT CAVOK 22/08 Q1026
  • 241250Z 22010KT CAVOK 23/09 Q1026 RMK O
  • 241220Z 22009KT CAVOK 22/08 Q1025 RMK N

TAF TAF LSZS
Valido dal 24 a 15 ore il 25 a 00 ore UTC


241425Z 2415/2424 22011KT CAVOK TX25/2415Z
PROB30 2415/2418 9999 FEW045
BECMG 2415/2418 VRB03KT
ATIS : +41 81 834 93 24
Nessun NOTAM noto per questo aeroporto.



MetMap, La meteo Aeronautica in un colpo d'occhio ! - Copyright ORBIFLY Dicembre 2007 - Disclaimer

ORBIFLY MET'MAP TEAM :

Programmazione e sviluppo : Alexandra Zaïnal
Concezione e sviluppo : Baudouin d'Aumeries
Co-Programmazione e sviluppo : Marc-Olivier Méhu
Supporto tecnico e logistico : Manuel Goepfert
Aiuto per la traduzione : Arnaldo La Scala

Contatto : metmap@orbifly.com




FONTI E CREDITI :

   NOAA